DECAYED

CZ-2D R/B, 58142 (Decayed)

Orbit data source: Space-Track

CZ-2D R/B, 58142 was space debris in LEO originally from a launch on Mon, 23 Oct 2023 UTC launched from the Xichang Space Center, China (XSC). Debris objects in space refer to the collection of defunct objects orbiting the Earth. Examples of debris include non-operational satellites, rocket bodies, and fragments generated from explosions, collisions, or faulty payload assembly.

Not visible in the next 10 days
CZ-2D R/B details
Identifier
58142, 2023-163B
Orbit
Decayed
Last TLE update2 months ago
Origin
Flag of CNCASC (CN / PRC)
ManufacturerBWYIC
MissionDecayed spacecraft
Bus & MotorCZ-2 STAGE 2, Unknown motor
Mass4,006 kg wet, 4,006 kg dry
Launch date (UTC)
2023-10-23 (1 year ago)
Launch vehicleUnknown
Launch site
Xichang Space Center, China (XSC)
Object type
Payload
Rocket body
Debris
Shape & HBRCyl + 1 Sail, 8.9 m
Radar Cross Section27.824 m², Large (>1 m²)

Expand to show TLE details & history

TLE from 2 months ago
0 CZ-2D R/B
1 58142U 23163B   24282.52658632  .11432968  12836-5  23718-2 0  9992
2 58142  34.9547 199.7689 0004762 249.9087 287.0150 16.29904791 54135
Epoch: 2024-10-08T12:38Z
Definitive object data (Epoch: 2024-10-08T12:38:17.058Z)
Latitude1.7598°
Longitude170.05464°
Altitude190.522 km
Speed7.795 km/s
True Right ascension01h 09m 03s
True Declination1° 44' 54"
Sunlit
Object was in full shadow at TLE epoch
Visualization observer readout
Observer readout values are unavailable because the object's trajectory could not be propagated. This is usually caused when the trajectory data is faulty or the object's orbit has decayed.
Visualization observer readout
Observer readout values are unavailable because the object's trajectory could not be propagated. This is usually caused when the trajectory data is faulty or the object's orbit has decayed.
Orbital elements
Apogee altitude199.334 km
Perigee altitude193.073 km
Semi-major axis6,574.34 km
Eccentricity0.0004762
Inclination34.9547°
RAAN199.7689°
Arg. of periapsis249.9087°
True anomaly286.96281°
Mean anomaly287.015°
Eccentric anomaly286.98891°
Mean motion4.0716 °/min
BSTAR0.0023718
Orbital period88.42 mins
Loading maneuver chart data...
Loading historical data...
Loading historical data...
Loading historical data...
Loading historical data...
Loading historical data...
Loading historical data...
Loading historical data...

CZ-2D R/B Visibility forecast

Observer location: undefined°, undefined

This satellite is decayed
Span
Click to sort rows by Start time (UTC) header in descending order
Start Az.
Max El. time (UTC)
Max El. Az.
Max El.
End time (UTC)
End Az.
|